,,,PA_Meas_PMT16A,,PR_Meas_QMR101_102,,RH_Meas_QMH101,,SR_Meas_QMS101,,TA_Meas_QMH101,,GenWind,,GenWind,
date,time,status,PA,status,PR,status,RH,status,SR,status,TA,status,DirAvg,status,SpdAvg,
2012-01-22, 00:00:05,VALID,1008.58,VALID,0,VALID,104,VALID,0,VALID,24.3761,VALID,343,VALID,0,
2012-01-22, 00:01:05,VALID,1008.56,VALID,0,VALID,104,VALID,0,VALID,24.3974,VALID,343,VALID,0,
2012-01-22, 00:02:05,VALID,1008.54,VALID,0,VALID,104,VALID,0,VALID,24.3761,VALID,343,VALID,0,
2012-01-22, 00:03:05,VALID,1008.53,VALID,0,VALID,104,VALID,0,VALID,24.3974,VALID,343,VALID,0,
2012-01-22, 00:04:05,VALID,1008.54,VALID,0,VALID,104,VALID,0,VALID,24.3566,VALID,343,VALID,0,
2012-01-22, 00:05:05,VALID,1008.53,VALID,0,VALID,104,VALID,0,VALID,24.3779,VALID,343,VALID,0,
2012-01-22, 00:06:05,VALID,1008.51,VALID,0,VALID,104,VALID,0,VALID,24.3584,VALID,343,VALID,0,
2012-01-22, 00:07:05,VALID,1008.5,VALID,0,VALID,104,VALID,0,VALID,24.3566,VALID,343,VALID,0.0277344,
2012-01-22, 00:08:05,VALID,1008.49,VALID,0,VALID,104,VALID,0.112112,VALID,24.3547,VALID,343,VALID,0.121484,
2012-01-22, 00:09:05,VALID,1008.47,VALID,0,VALID,104,VALID,0.112112,VALID,24.3352,VALID,343,VALID,0,
2012-01-22, 00:10:05,VALID,1008.46,VALID,0,VALID,104,VALID,0.112112,VALID,24.3352,VALID,343,VALID,0.00234375,
2012-01-22, 00:11:05,VALID,1008.46,VALID,0,VALID,104,VALID,0.112112,VALID,24.3352,VALID,343,VALID,0.0046875,
2012-01-22, 00:12:05,VALID,1008.46,VALID,0,VALID,104,VALID,0.224224,VALID,24.3158,VALID,343,VALID,0,
2012-01-22, 00:13:05,VALID,1008.43,VALID,0,VALID,104,VALID,0.112112,VALID,24.3158,VALID,343,VALID,0,
2012-01-22, 00:14:05,VALID,1008.43,VALID,0,VALID,104,VALID,0.112112,VALID,24.3158,VALID,343,VALID,0,
2012-01-22, 00:15:05,VALID,1008.42,VALID,0,VALID,104,VALID,0.112112,VALID,24.2963,VALID,343,VALID,0,
2012-01-22, 00:16:05,VALID,1008.41,VALID,0,VALID,104,VALID,0.112112,VALID,24.2768,VALID,343,VALID,0,
2012-01-22, 00:17:05,VALID,1008.42,VALID,0,VALID,104,VALID,0.112112,VALID,24.2768,VALID,343,VALID,0,
2012-01-22, 00:18:05,VALID,1008.39,VALID,0,VALID,104,VALID,0.112112,VALID,24.2378,VALID,343,VALID,0,
2012-01-22, 00:19:05,VALID,1008.41,VALID,0,VALID,104,VALID,0.112112,VALID,24.2378,VALID,343,VALID,0,
2012-01-22, 00:20:05,VALID,1008.36,VALID,0,VALID,104,VALID,0.112112,VALID,24.2183,VALID,343,VALID,0,
2012-01-22, 00:21:05,VALID,1008.36,VALID,0,VALID,104,VALID,0.112112,VALID,24.2183,VALID,343,VALID,0,
2012-01-22, 00:22:05,VALID,1008.37,VALID,0,VALID,104,VALID,0.112112,VALID,24.1988,VALID,343,VALID,0,
2012-01-22, 00:23:05,VALID,1008.36,VALID,0,VALID,104,VALID,0,VALID,24.1988,VALID,343,VALID,0,
2012-01-22, 00:24:05,VALID,1008.37,VALID,0,VALID,104,VALID,0.112112,VALID,24.1775,VALID,343,VALID,0,
2012-01-22, 00:25:05,VALID,1008.33,VALID,0,VALID,104,VALID,0.112112,VALID,24.1793,VALID,343,VALID,0,
2012-01-22, 00:26:05,VALID,1008.35,VALID,0,VALID,104,VALID,0.112112,VALID,24.1599,VALID,343,VALID,0,
2012-01-22, 00:27:05,VALID,1008.34,VALID,0,VALID,104,VALID,0.112112,VALID,24.1404,VALID,343,VALID,0,
2012-01-22, 00:28:05,VALID,1008.34,VALID,0,VALID,104,VALID,0,VALID,24.1209,VALID,343,VALID,0,
2012-01-22, 00:29:05,VALID,1008.3,VALID,0,VALID,104,VALID,0.112112,VALID,24.1404,VALID,343,VALID,0,
2012-01-22, 00:30:05,VALID,1008.25,VALID,0,VALID,104,VALID,0,VALID,24.1209,VALID,343,VALID,0,
2012-01-22, 00:31:05,VALID,1008.27,VALID,0,VALID,104,VALID,0.112112,VALID,24.1209,VALID,343,VALID,0,
2012-01-22, 00:32:05,VALID,1008.27,VALID,0,VALID,104,VALID,0.112112,VALID,24.1422,VALID,343,VALID,0,
2012-01-22, 00:33:05,VALID,1008.26,VALID,0,VALID,104,VALID,0.112112,VALID,24.1422,VALID,343,VALID,0,
2012-01-22, 00:34:05,VALID,1008.25,VALID,0,VALID,104,VALID,0.112112,VALID,24.1422,VALID,343,VALID,0,
2012-01-22, 00:35:05,VALID,1008.25,VALID,0,VALID,104,VALID,0.112112,VALID,24.1209,VALID,343,VALID,0,
2012-01-22, 00:36:05,VALID,1008.26,VALID,0,VALID,104,VALID,0.112112,VALID,24.1014,VALID,343,VALID,0.185547,
2012-01-22, 00:37:05,VALID,1008.27,VALID,0,VALID,104,VALID,0.112112,VALID,24.1014,VALID,343,VALID,0.2125,
2012-01-22, 00:38:05,VALID,1008.24,VALID,0,VALID,104,VALID,0,VALID,24.1032,VALID,343,VALID,0.181641,
2012-01-22, 00:39:05,VALID,1008.21,VALID,0,VALID,104,VALID,0.112112,VALID,24.1032,VALID,343,VALID,0.254687,
2012-01-22, 00:40:05,VALID,1008.18,VALID,0,VALID,104,VALID,0,VALID,24.0837,VALID,343,VALID,0.149609,
2012-01-22, 00:41:05,VALID,1008.18,VALID,0,VALID,104,VALID,0,VALID,24.0643,VALID,343,VALID,0.141797,
2012-01-22, 00:42:05,VALID,1008.15,VALID,0,VALID,104,VALID,0.112112,VALID,24.0448,VALID,343,VALID,0.194922,
2012-01-22, 00:43:05,VALID,1008.16,VALID,0,VALID,104,VALID,0,VALID,24.0235,VALID,343,VALID,0.145703,
2012-01-22, 00:44:05,VALID,1008.17,VALID,0,VALID,104,VALID,0,VALID,24.0448,VALID,343,VALID,0.180469,
2012-01-22, 00:45:05,VALID,1008.14,VALID,0,VALID,104,VALID,0,VALID,24.0448,VALID,343,VALID,0.0726563,
2012-01-22, 00:46:04,VALID,1008.16,VALID,0,VALID,104,VALID,0,VALID,24.0253,VALID,343,VALID,0,
2012-01-22, 00:47:04,VALID,1008.16,VALID,0,VALID,104,VALID,0.112112,VALID,24.0253,VALID,343,VALID,0,
2012-01-22, 00:48:04,VALID,1008.16,VALID,0,VALID,104,VALID,0,VALID,24.0058,VALID,343,VALID,0.00078125,
2012-01-22, 00:49:04,VALID,1008.19,VALID,0,VALID,104,VALID,0,VALID,23.9668,VALID,343,VALID,0.142969,
2012-01-22, 00:50:04,VALID,1008.16,VALID,0,VALID,104,VALID,0,VALID,23.9473,VALID,343,VALID,0.392969,
2012-01-22, 00:51:04,VALID,1008.2,VALID,0,VALID,104,VALID,0,VALID,23.9278,VALID,343,VALID,0.607031,
2012-01-22, 00:52:04,VALID,1008.22,VALID,0,VALID,104,VALID,0,VALID,23.9668,VALID,350,VALID,0.769922,
2012-01-22, 00:53:04,VALID,1008.2,VALID,0,VALID,104,VALID,0,VALID,23.9863,VALID,353,VALID,0.645312,
2012-01-22, 00:54:04,VALID,1008.2,VALID,0,VALID,104,VALID,0,VALID,23.9881,VALID,353,VALID,0.491406,
2012-01-22, 00:55:04,VALID,1008.22,VALID,0,VALID,104,VALID,0,VALID,23.9473,VALID,353,VALID,0.469141,
2012-01-22, 00:56:04,VALID,1008.17,VALID,0,VALID,104,VALID,0,VALID,23.9473,VALID,353,VALID,0.368359,
2012-01-22, 00:57:04,VALID,1008.16,VALID,0,VALID,104,VALID,0,VALID,23.9278,VALID,353,VALID,0.185937,
2012-01-22, 00:58:04,VALID,1008.14,VALID,0,VALID,104,VALID,0,VALID,23.9084,VALID,353,VALID,0.211719,
2012-01-22, 00:59:04,VALID,1008.09,VALID,0,VALID,104,VALID,0,VALID,23.8889,VALID,353,VALID,0.0183594,
2012-01-22, 01:00:04,VALID,1008.1,VALID,0,VALID,104,VALID,0,VALID,23.8694,VALID,353,VALID,0.129688,
2012-01-22, 01:01:04,VALID,1008.09,VALID,0,VALID,104,VALID,0,VALID,23.8694,VALID,353,VALID,0.00195313,
2012-01-22, 01:02:04,VALID,1008.05,VALID,0,VALID,104,VALID,0,VALID,23.8499,VALID,353,VALID,0,
2012-01-22, 01:03:04,VALID,1008.06,VALID,0,VALID,104,VALID,0,VALID,23.8712,VALID,353,VALID,0,
2012-01-22, 01:04:04,VALID,1008.04,VALID,0,VALID,104,VALID,0,VALID,23.8304,VALID,353,VALID,0,
2012-01-22, 01:05:04,VALID,1008.03,VALID,0,VALID,104,VALID,0,VALID,23.8517,VALID,353,VALID,0.15625,
2012-01-22, 01:06:04,VALID,1007.99,VALID,0,VALID,104,VALID,0,VALID,23.8109,VALID,353,VALID,0.0484375,
2012-01-22, 01:07:04,VALID,1008.03,VALID,0,VALID,104,VALID,0,VALID,23.772,VALID,353,VALID,0,
2012-01-22, 01:08:04,VALID,1008.03,VALID,0,VALID,104,VALID,0,VALID,23.7525,VALID,353,VALID,0,
2012-01-22, 01:09:04,VALID,1008.01,VALID,0,VALID,104,VALID,0,VALID,23.7525,VALID,353,VALID,0,
2012-01-22, 01:10:04,VALID,1007.99,VALID,0,VALID,104,VALID,0,VALID,23.733,VALID,353,VALID,0,
2012-01-22, 01:11:04,VALID,1007.98,VALID,0,VALID,104,VALID,0,VALID,23.7135,VALID,353,VALID,0,
2012-01-22, 01:12:04,VALID,1007.97,VALID,0,VALID,104,VALID,0,VALID,23.7135,VALID,353,VALID,0,
2012-01-22, 01:13:04,VALID,1007.95,VALID,0,VALID,104,VALID,0,VALID,23.7153,VALID,353,VALID,0,
2012-01-22, 01:14:04,VALID,1007.96,VALID,0,VALID,104,VALID,0,VALID,23.6745,VALID,353,VALID,0,
2012-01-22, 01:15:04,VALID,1007.97,VALID,0,VALID,104,VALID,0,VALID,23.6745,VALID,353,VALID,0,
2012-01-22, 01:16:04,VALID,1007.95,VALID,0,VALID,104,VALID,0,VALID,23.6745,VALID,353,VALID,0,
2012-01-22, 01:17:04,VALID,1007.96,VALID,0,VALID,104,VALID,0,VALID,23.6745,VALID,353,VALID,0,
2012-01-22, 01:18:04,VALID,1007.93,VALID,0,VALID,104,VALID,0,VALID,23.6745,VALID,353,VALID,0.0890625,
2012-01-22, 01:19:04,VALID,1007.91,VALID,0,VALID,104,VALID,0,VALID,23.6958,VALID,353,VALID,0.133984,
2012-01-22, 01:20:04,VALID,1007.9,VALID,0,VALID,104,VALID,0,VALID,23.655,VALID,353,VALID,0,
2012-01-22, 01:21:04,VALID,1007.89,VALID,0,VALID,104,VALID,0,VALID,23.6356,VALID,353,VALID,0.2625,
2012-01-22, 01:22:04,VALID,1007.91,VALID,0,VALID,104,VALID,0,VALID,23.5966,VALID,353,VALID,0,
2012-01-22, 01:23:04,VALID,1007.89,VALID,0,VALID,104,VALID,0,VALID,23.5966,VALID,353,VALID,0,
2012-01-22, 01:24:04,VALID,1007.9,VALID,0,VALID,104,VALID,0,VALID,23.5966,VALID,353,VALID,0,
2012-01-22, 01:25:04,VALID,1007.9,VALID,0,VALID,104,VALID,0,VALID,23.5966,VALID,353,VALID,0,
2012-01-22, 01:26:04,VALID,1007.92,VALID,0,VALID,104,VALID,0,VALID,23.5966,VALID,353,VALID,0.178516,
2012-01-22, 01:27:04,VALID,1007.9,VALID,0,VALID,104,VALID,0,VALID,23.6161,VALID,353,VALID,0.200391,
2012-01-22, 01:28:04,VALID,1007.88,VALID,0,VALID,104,VALID,0,VALID,23.5966,VALID,353,VALID,0.246484,
2012-01-22, 01:29:04,VALID,1007.84,VALID,0,VALID,104,VALID,0,VALID,23.5771,VALID,353,VALID,0.251563,
2012-01-22, 01:30:04,VALID,1007.85,VALID,0,VALID,104,VALID,0,VALID,23.5771,VALID,353,VALID,0.29375,
2012-01-22, 01:31:04,VALID,1007.86,VALID,0,VALID,104,VALID,0,VALID,23.5771,VALID,353,VALID,0.396484,
2012-01-22, 01:32:04,VALID,1007.85,VALID,0,VALID,104,VALID,0,VALID,23.5771,VALID,353,VALID,0.303516,
2012-01-22, 01:33:04,VALID,1007.86,VALID,0,VALID,104,VALID,0,VALID,23.5771,VALID,353,VALID,0.29375,
2012-01-22, 01:34:04,VALID,1007.88,VALID,0,VALID,104,VALID,0,VALID,23.5771,VALID,353,VALID,0.372266,
2012-01-22, 01:35:04,VALID,1007.87,VALID,0,VALID,104,VALID,0,VALID,23.5984,VALID,353,VALID,0.363281,
2012-01-22, 01:36:04,VALID,1007.86,VALID,0,VALID,104,VALID,0,VALID,23.5771,VALID,353,VALID,0.309766,
2012-01-22, 01:37:04,VALID,1007.88,VALID,0,VALID,104,VALID,0,VALID,23.5381,VALID,353,VALID,0.196094,
2012-01-22, 01:38:04,VALID,1007.89,VALID,0,VALID,104,VALID,0,VALID,23.4992,VALID,353,VALID,0.00195313,
2012-01-22, 01:39:04,VALID,1007.87,VALID,0,VALID,104,VALID,0,VALID,23.4602,VALID,353,VALID,0,
2012-01-22, 01:40:04,VALID,1007.86,VALID,0,VALID,104,VALID,0,VALID,23.4194,VALID,353,VALID,0,
2012-01-22, 01:41:04,VALID,1007.86,VALID,0,VALID,104,VALID,0,VALID,23.4407,VALID,353,VALID,0,
2012-01-22, 01:42:04,VALID,1007.84,VALID,0,VALID,104,VALID,0,VALID,23.4212,VALID,353,VALID,0,
2012-01-22, 01:43:04,VALID,1007.84,VALID,0,VALID,104,VALID,0,VALID,23.4035,VALID,353,VALID,0,
2012-01-22, 01:44:04,VALID,1007.83,VALID,0,VALID,104,VALID,0,VALID,23.3823,VALID,353,VALID,0,
2012-01-22, 01:45:04,VALID,1007.81,VALID,0,VALID,104,VALID,0,VALID,23.3823,VALID,353,VALID,0,
2012-01-22, 01:46:04,VALID,1007.8,VALID,0,VALID,104,VALID,0,VALID,23.3628,VALID,353,VALID,0.150781,
2012-01-22, 01:47:04,VALID,1007.81,VALID,0,VALID,104,VALID,0,VALID,23.3433,VALID,353,VALID,0.153906,
2012-01-22, 01:48:04,VALID,1007.79,VALID,0,VALID,104,VALID,0,VALID,23.3238,VALID,353,VALID,0,
2012-01-22, 01:49:04,VALID,1007.78,VALID,0,VALID,104,VALID,0,VALID,23.3043,VALID,353,VALID,0.05625,
2012-01-22, 01:50:04,VALID,1007.81,VALID,0,VALID,104,VALID,0,VALID,23.3043,VALID,353,VALID,0,
2012-01-22, 01:51:04,VALID,1007.84,VALID,0,VALID,104,VALID,0,VALID,23.3238,VALID,353,VALID,0,
2012-01-22, 01:52:04,VALID,1007.85,VALID,0,VALID,104,VALID,0,VALID,23.3238,VALID,353,VALID,0,
2012-01-22, 01:53:04,VALID,1007.83,VALID,0,VALID,104,VALID,0,VALID,23.3238,VALID,353,VALID,0,
2012-01-22, 01:54:04,VALID,1007.81,VALID,0,VALID,104,VALID,0,VALID,23.3043,VALID,353,VALID,0,
2012-01-22, 01:55:04,VALID,1007.77,VALID,0,VALID,104,VALID,0,VALID,23.3043,VALID,353,VALID,0,
2012-01-22, 01:56:04,VALID,1007.8,VALID,0,VALID,104,VALID,0,VALID,23.2831,VALID,353,VALID,0,
2012-01-22, 01:57:04,VALID,1007.77,VALID,0,VALID,104,VALID,0,VALID,23.2848,VALID,353,VALID,0,
2012-01-22, 01:58:04,VALID,1007.74,VALID,0,VALID,104,VALID,0,VALID,23.2654,VALID,353,VALID,0.330859,
2012-01-22, 01:59:04,VALID,1007.71,VALID,0,VALID,104,VALID,0,VALID,23.2848,VALID,353,VALID,0.360156,
2012-01-22, 02:00:04,VALID,1007.69,VALID,0,VALID,104,VALID,0.112112,VALID,23.2848,VALID,353,VALID,0.182031,
2012-01-22, 02:01:04,VALID,1007.67,VALID,0,VALID,104,VALID,0,VALID,23.2459,VALID,353,VALID,0,
2012-01-22, 02:02:04,VALID,1007.7,VALID,0,VALID,104,VALID,0,VALID,23.2069,VALID,353,VALID,0,
2012-01-22, 02:03:04,VALID,1007.67,VALID,0,VALID,104,VALID,0,VALID,23.1857,VALID,353,VALID,0,
2012-01-22, 02:04:04,VALID,1007.68,VALID,0,VALID,104,VALID,0,VALID,23.2069,VALID,353,VALID,0,
2012-01-22, 02:05:04,VALID,1007.7,VALID,0,VALID,104,VALID,0,VALID,23.1874,VALID,353,VALID,0,
2012-01-22, 02:06:04,VALID,1007.68,VALID,0,VALID,104,VALID,0,VALID,23.1874,VALID,353,VALID,0,
2012-01-22, 02:07:04,VALID,1007.66,VALID,0,VALID,104,VALID,0,VALID,23.1874,VALID,353,VALID,0,
2012-01-22, 02:08:04,VALID,1007.64,VALID,0,VALID,104,VALID,0,VALID,23.1679,VALID,353,VALID,0,
2012-01-22, 02:09:04,VALID,1007.64,VALID,0,VALID,104,VALID,0,VALID,23.1697,VALID,353,VALID,0,
2012-01-22, 02:10:04,VALID,1007.62,VALID,0,VALID,104,VALID,0,VALID,23.129,VALID,353,VALID,0,
2012-01-22, 02:11:04,VALID,1007.65,VALID,0,VALID,104,VALID,0,VALID,23.1485,VALID,353,VALID,0,
2012-01-22, 02:12:04,VALID,1007.64,VALID,0,VALID,104,VALID,0,VALID,23.1679,VALID,353,VALID,0,
2012-01-22, 02:13:04,VALID,1007.66,VALID,0,VALID,104,VALID,0,VALID,23.1679,VALID,353,VALID,0.18125,
2012-01-22, 02:14:04,VALID,1007.63,VALID,0,VALID,104,VALID,0,VALID,23.2069,VALID,353,VALID,0.138672,
2012-01-22, 02:15:04,VALID,1007.63,VALID,0,VALID,104,VALID,0,VALID,23.2264,VALID,353,VALID,0.391797,
2012-01-22, 02:16:04,VALID,1007.63,VALID,0,VALID,104,VALID,0,VALID,23.2654,VALID,353,VALID,0.170703,
2012-01-22, 02:17:04,VALID,1007.61,VALID,0,VALID,104,VALID,0,VALID,23.2654,VALID,353,VALID,0.268359,
2012-01-22, 02:18:04,VALID,1007.59,VALID,0,VALID,104,VALID,0,VALID,23.2654,VALID,353,VALID,0.09375,
2012-01-22, 02:19:04,VALID,1007.57,VALID,0,VALID,104,VALID,0,VALID,23.2459,VALID,353,VALID,0.0816406,
2012-01-22, 02:20:04,VALID,1007.55,VALID,0,VALID,104,VALID,0,VALID,23.2459,VALID,353,VALID,0.116016,
2012-01-22, 02:21:04,VALID,1007.51,VALID,0,VALID,104,VALID,0,VALID,23.2654,VALID,353,VALID,0.219141,
2012-01-22, 02:22:04,VALID,1007.54,VALID,0,VALID,104,VALID,0,VALID,23.2654,VALID,353,VALID,0.192188,
2012-01-22, 02:23:04,VALID,1007.53,VALID,0,VALID,104,VALID,0,VALID,23.2264,VALID,353,VALID,0.137891,
2012-01-22, 02:24:04,VALID,1007.52,VALID,0,VALID,104,VALID,0.112112,VALID,23.2264,VALID,353,VALID,0,
2012-01-22, 02:25:04,VALID,1007.56,VALID,0,VALID,104,VALID,0.112112,VALID,23.2069,VALID,353,VALID,0,
2012-01-22, 02:26:04,VALID,1007.55,VALID,0,VALID,104,VALID,0,VALID,23.2069,VALID,353,VALID,0,
2012-01-22, 02:27:04,VALID,1007.56,VALID,0,VALID,104,VALID,0,VALID,23.2069,VALID,353,VALID,0,
2012-01-22, 02:28:04,VALID,1007.57,VALID,0,VALID,104,VALID,0,VALID,23.2069,VALID,353,VALID,0.0535156,
2012-01-22, 02:29:04,VALID,1007.55,VALID,0,VALID,104,VALID,0,VALID,23.2069,VALID,353,VALID,0.124609,
2012-01-22, 02:30:04,VALID,1007.56,VALID,0,VALID,104,VALID,0.112112,VALID,23.2264,VALID,353,VALID,0,
2012-01-22, 02:31:04,VALID,1007.54,VALID,0,VALID,104,VALID,0.112112,VALID,23.2264,VALID,353,VALID,0,
2012-01-22, 02:32:04,VALID,1007.52,VALID,0,VALID,104,VALID,0,VALID,23.2264,VALID,353,VALID,0,
2012-01-22, 02:33:04,VALID,1007.52,VALID,0,VALID,104,VALID,0,VALID,23.2264,VALID,353,VALID,0,
2012-01-22, 02:34:04,VALID,1007.49,VALID,0,VALID,104,VALID,0,VALID,23.2087,VALID,353,VALID,0,
2012-01-22, 02:35:04,VALID,1007.5,VALID,0,VALID,104,VALID,0,VALID,23.1679,VALID,353,VALID,0,
2012-01-22, 02:36:04,VALID,1007.51,VALID,0,VALID,104,VALID,0,VALID,23.1485,VALID,353,VALID,0,
2012-01-22, 02:37:04,VALID,1007.47,VALID,0,VALID,104,VALID,0,VALID,23.1485,VALID,353,VALID,0,
2012-01-22, 02:38:04,VALID,1007.49,VALID,0,VALID,104,VALID,0,VALID,23.1485,VALID,353,VALID,0,
2012-01-22, 02:39:04,VALID,1007.44,VALID,0,VALID,104,VALID,0,VALID,23.129,VALID,353,VALID,0,
2012-01-22, 02:40:04,VALID,1007.44,VALID,0,VALID,104,VALID,0,VALID,23.09,VALID,353,VALID,0,
2012-01-22, 02:41:04,VALID,1007.42,VALID,0,VALID,104,VALID,0,VALID,23.0705,VALID,353,VALID,0,
2012-01-22, 02:42:04,VALID,1007.43,VALID,0,VALID,104,VALID,0,VALID,23.0705,VALID,353,VALID,0,
2012-01-22, 02:43:04,VALID,1007.45,VALID,0,VALID,104,VALID,0,VALID,23.0705,VALID,353,VALID,0,
2012-01-22, 02:44:04,VALID,1007.44,VALID,0,VALID,104,VALID,0,VALID,23.0511,VALID,353,VALID,0,
2012-01-22, 02:45:04,VALID,1007.44,VALID,0,VALID,104,VALID,0,VALID,23.0511,VALID,353,VALID,0,
2012-01-22, 02:46:04,VALID,1007.44,VALID,0,VALID,104,VALID,0,VALID,23.0511,VALID,353,VALID,0,
2012-01-22, 02:47:04,VALID,1007.42,VALID,0,VALID,104,VALID,0,VALID,23.0316,VALID,353,VALID,0,
2012-01-22, 02:48:04,VALID,1007.41,VALID,0,VALID,104,VALID,0,VALID,23.0511,VALID,353,VALID,0,
2012-01-22, 02:49:04,VALID,1007.41,VALID,0,VALID,104,VALID,0,VALID,23.0316,VALID,353,VALID,0,
2012-01-22, 02:50:04,VALID,1007.4,VALID,0,VALID,104,VALID,0,VALID,23.0511,VALID,353,VALID,0,
2012-01-22, 02:51:04,VALID,1007.37,VALID,0,VALID,104,VALID,0,VALID,23.0511,VALID,353,VALID,0,
2012-01-22, 02:52:04,VALID,1007.33,VALID,0,VALID,104,VALID,0,VALID,23.0705,VALID,353,VALID,0,
2012-01-22, 02:53:04,VALID,1007.31,VALID,0,VALID,104,VALID,0,VALID,23.1095,VALID,353,VALID,0,
2012-01-22, 02:54:04,VALID,1007.32,VALID,0,VALID,104,VALID,0,VALID,23.1307,VALID,353,VALID,0,
2012-01-22, 02:55:04,VALID,1007.31,VALID,0,VALID,104,VALID,0,VALID,23.09,VALID,353,VALID,0,
2012-01-22, 02:56:04,VALID,1007.33,VALID,0,VALID,104,VALID,0,VALID,23.09,VALID,353,VALID,0,
2012-01-22, 02:57:04,VALID,1007.3,VALID,0,VALID,104,VALID,0,VALID,23.0705,VALID,353,VALID,0,
2012-01-22, 02:58:04,VALID,1007.31,VALID,0,VALID,104,VALID,0,VALID,23.0705,VALID,353,VALID,0,
2012-01-22, 02:59:04,VALID,1007.28,VALID,0,VALID,104,VALID,0,VALID,23.0705,VALID,353,VALID,0,
2012-01-22, 03:00:04,VALID,1007.28,VALID,0,VALID,104,VALID,0,VALID,23.0511,VALID,353,VALID,0,
2012-01-22, 03:01:04,VALID,1007.24,VALID,0,VALID,104,VALID,0,VALID,23.0705,VALID,353,VALID,0,
2012-01-22, 03:02:04,VALID,1007.24,VALID,0,VALID,104,VALID,0,VALID,23.1307,VALID,353,VALID,0,
2012-01-22, 03:03:04,VALID,1007.23,VALID,0,VALID,104,VALID,0,VALID,23.1697,VALID,353,VALID,0,
2012-01-22, 03:04:04,VALID,1007.23,VALID,0,VALID,104,VALID,0,VALID,23.1874,VALID,353,VALID,0,
2012-01-22, 03:05:04,VALID,1007.23,VALID,0,VALID,104,VALID,0,VALID,23.1874,VALID,353,VALID,0,
2012-01-22, 03:06:04,VALID,1007.25,VALID,0,VALID,104,VALID,0,VALID,23.1679,VALID,353,VALID,0,
2012-01-22, 03:07:04,VALID,1007.26,VALID,0,VALID,104,VALID,0,VALID,23.1679,VALID,353,VALID,0,
2012-01-22, 03:08:04,VALID,1007.28,VALID,0,VALID,104,VALID,0,VALID,23.1485,VALID,353,VALID,0,
2012-01-22, 03:09:04,VALID,1007.3,VALID,0,VALID,104,VALID,0,VALID,23.1485,VALID,353,VALID,0,
2012-01-22, 03:10:04,VALID,1007.32,VALID,0,VALID,104,VALID,0,VALID,23.1095,VALID,353,VALID,0,
2012-01-22, 03:11:04,VALID,1007.32,VALID,0,VALID,104,VALID,0,VALID,23.1485,VALID,353,VALID,0,
2012-01-22, 03:12:04,VALID,1007.34,VALID,0,VALID,104,VALID,0,VALID,23.1679,VALID,353,VALID,0,
2012-01-22, 03:13:04,VALID,1007.34,VALID,0,VALID,104,VALID,0,VALID,23.1679,VALID,353,VALID,0,
2012-01-22, 03:14:04,VALID,1007.32,VALID,0,VALID,104,VALID,0,VALID,23.129,VALID,353,VALID,0,
2012-01-22, 03:15:04,VALID,1007.34,VALID,0,VALID,104,VALID,0,VALID,23.0705,VALID,353,VALID,0,
2012-01-22, 03:16:04,VALID,1007.34,VALID,0,VALID,104,VALID,0,VALID,23.0511,VALID,353,VALID,0.233984,
2012-01-22, 03:17:04,VALID,1007.36,VALID,0,VALID,104,VALID,0,VALID,23.0705,VALID,353,VALID,0.332422,
2012-01-22, 03:18:04,VALID,1007.36,VALID,0,VALID,104,VALID,0,VALID,23.0705,VALID,353,VALID,0.321094,
2012-01-22, 03:19:04,VALID,1007.37,VALID,0,VALID,104,VALID,0,VALID,23.0705,VALID,353,VALID,0.125781,
2012-01-22, 03:20:04,VALID,1007.4,VALID,0,VALID,104,VALID,0,VALID,23.0528,VALID,353,VALID,0,
2012-01-22, 03:21:04,VALID,1007.39,VALID,0,VALID,104,VALID,0,VALID,23.0121,VALID,353,VALID,0,
2012-01-22, 03:22:04,VALID,1007.38,VALID,0,VALID,104,VALID,0,VALID,23.0316,VALID,353,VALID,0,
2012-01-22, 03:23:04,VALID,1007.39,VALID,0,VALID,104,VALID,0,VALID,23.0511,VALID,353,VALID,0,
2012-01-22, 03:24:04,VALID,1007.38,VALID,0,VALID,104,VALID,0,VALID,23.0121,VALID,353,VALID,0.102344,
2012-01-22, 03:25:04,VALID,1007.37,VALID,0,VALID,104,VALID,0,VALID,23.0316,VALID,353,VALID,0.371875,
2012-01-22, 03:26:04,VALID,1007.37,VALID,0,VALID,104,VALID,0,VALID,23.0316,VALID,353,VALID,0.38125,
2012-01-22, 03:27:04,VALID,1007.39,VALID,0,VALID,104,VALID,0,VALID,23.0138,VALID,353,VALID,0.401563,
2012-01-22, 03:28:04,VALID,1007.39,VALID,0,VALID,104,VALID,0,VALID,23.0138,VALID,353,VALID,0.375781,
2012-01-22, 03:29:04,VALID,1007.38,VALID,0,VALID,104,VALID,0,VALID,23.0138,VALID,353,VALID,0.160938,
2012-01-22, 03:30:04,VALID,1007.39,VALID,0,VALID,104,VALID,0,VALID,22.9731,VALID,353,VALID,0,
2012-01-22, 03:31:04,VALID,1007.39,VALID,0,VALID,104,VALID,0,VALID,22.9554,VALID,353,VALID,0,
2012-01-22, 03:32:04,VALID,1007.38,VALID,0,VALID,104,VALID,0,VALID,22.9342,VALID,353,VALID,0,
2012-01-22, 03:33:04,VALID,1007.38,VALID,0,VALID,104,VALID,0,VALID,22.9342,VALID,353,VALID,0.0117188,
2012-01-22, 03:34:04,VALID,1007.36,VALID,0,VALID,104,VALID,0,VALID,22.9536,VALID,353,VALID,0,
2012-01-22, 03:35:04,VALID,1007.36,VALID,0,VALID,104,VALID,0,VALID,22.9536,VALID,353,VALID,0,
2012-01-22, 03:36:04,VALID,1007.32,VALID,0,VALID,104,VALID,0,VALID,22.9943,VALID,353,VALID,0,
2012-01-22, 03:37:04,VALID,1007.32,VALID,0,VALID,104,VALID,0,VALID,22.9731,VALID,353,VALID,0,
2012-01-22, 03:38:04,VALID,1007.31,VALID,0,VALID,104,VALID,0,VALID,22.9731,VALID,353,VALID,0,
2012-01-22, 03:39:04,VALID,1007.35,VALID,0,VALID,104,VALID,0,VALID,22.9749,VALID,353,VALID,0,
2012-01-22, 03:40:04,VALID,1007.38,VALID,0,VALID,104,VALID,0.112112,VALID,22.9342,VALID,353,VALID,0,
2012-01-22, 03:41:04,VALID,1007.37,VALID,0,VALID,104,VALID,0,VALID,22.9342,VALID,353,VALID,0,
2012-01-22, 03:42:04,VALID,1007.4,VALID,0,VALID,104,VALID,0,VALID,22.9147,VALID,353,VALID,0,
2012-01-22, 03:43:04,VALID,1007.39,VALID,0,VALID,104,VALID,0,VALID,22.9147,VALID,353,VALID,0,
2012-01-22, 03:44:04,VALID,1007.4,VALID,0,VALID,104,VALID,0,VALID,22.9147,VALID,353,VALID,0,
2012-01-22, 03:45:04,VALID,1007.41,VALID,0,VALID,104,VALID,0,VALID,22.9147,VALID,353,VALID,0,
2012-01-22, 03:46:04,VALID,1007.43,VALID,0,VALID,104,VALID,0,VALID,22.9342,VALID,353,VALID,0,
2012-01-22, 03:47:04,VALID,1007.44,VALID,0,VALID,104,VALID,0,VALID,22.9147,VALID,353,VALID,0,
2012-01-22, 03:48:04,VALID,1007.44,VALID,0,VALID,104,VALID,0.112112,VALID,22.8935,VALID,353,VALID,0,
2012-01-22, 03:49:04,VALID,1007.47,VALID,0,VALID,104,VALID,0.112112,VALID,22.8757,VALID,353,VALID,0,
2012-01-22, 03:50:04,VALID,1007.46,VALID,0,VALID,104,VALID,0,VALID,22.8562,VALID,353,VALID,0,
2012-01-22, 03:51:04,VALID,1007.45,VALID,0,VALID,104,VALID,0,VALID,22.8155,VALID,353,VALID,0,
2012-01-22, 03:52:04,VALID,1007.49,VALID,0,VALID,104,VALID,0.112112,VALID,22.8545,VALID,353,VALID,0,
2012-01-22, 03:53:04,VALID,1007.48,VALID,0,VALID,104,VALID,0,VALID,22.8757,VALID,353,VALID,0,
2012-01-22, 03:54:04,VALID,1007.48,VALID,0,VALID,104,VALID,0,VALID,22.8757,VALID,353,VALID,0,
2012-01-22, 03:55:04,VALID,1007.49,VALID,0,VALID,104,VALID,0,VALID,22.8562,VALID,353,VALID,0,
2012-01-22, 03:56:04,VALID,1007.48,VALID,0,VALID,104,VALID,0.112112,VALID,22.7961,VALID,353,VALID,0,
2012-01-22, 03:57:04,VALID,1007.51,VALID,0,VALID,104,VALID,0,VALID,22.8173,VALID,353,VALID,0,
2012-01-22, 03:58:04,VALID,1007.52,VALID,0,VALID,104,VALID,0.112112,VALID,22.8173,VALID,353,VALID,0,
2012-01-22, 03:59:04,VALID,1007.54,VALID,0,VALID,104,VALID,0.112112,VALID,22.8562,VALID,353,VALID,0,
2012-01-22, 04:00:04,VALID,1007.53,VALID,0,VALID,104,VALID,0.112112,VALID,22.8757,VALID,353,VALID,0,
2012-01-22, 04:01:04,VALID,1007.54,VALID,0,VALID,104,VALID,0,VALID,22.8562,VALID,353,VALID,0.0816406,